Las Vegas, NV

12:52 PM PDT on July 23, 2016 (GMT -0700)
Nellis AFB

Weather History for KLSV - August, 2013

Change the Weather History Date:

Saturday, August 3, 2013

  Actual Average Record
Temperature  
Mean Temperature 88 °F -  
Max Temperature 103 °F 103 °F 109 °F (1998)
Min Temperature 73 °F 77 °F 68 °F (2014)
Cooling Degree Days 23    
Growing Degree Days 38 (Base 50)    
Moisture  
Dew Point 32 °F    
Average Humidity 13    
Maximum Humidity 23    
Minimum Humidity 8    
Precipitation  
Precipitation 0.00 in - - ()
Sea Level Pressure  
Sea Level Pressure 29.80 in    
Wind  
Wind Speed 5 mph (SSE)    
Max Wind Speed 14 mph    
Max Gust Speed 21 mph    
Visibility 10 miles    
Events      
Averages and records for this station are not official NWS values.
T = Trace of Precipitation, MM = Missing Value Source: NWS Daily Summary

Daily Weather History Graph

Daily Weather History Graph

Search for Another Location

Airport or City:

Trip Planner

Search our weather history database for the weather conditions in past years. The results will help you decide how hot, cold, wet, or windy it might be!

Date:

Astronomy

Aug. 03, 2013 Rise Set
Actual Time 5:48 AM PDT 7:43 PM PDT
Civil Twilight 5:20 AM PDT 8:11 PM PDT
Nautical Twilight 4:46 AM PDT 8:45 PM PDT
Astronomical Twilight 4:09 AM PDT 9:21 PM PDT
Moon 3:02 AM PDT (8/3) 5:27 PM PDT (8/3)
Length of Visible Light 14h 50m
Length of Day
13h 54m
Waning Crescent, 9% of the Moon is Illuminated
Aug 3
Waning Crescent
Aug 6
New
Aug 14
First Quarter
Aug 20
Full
Aug 28
Last Quarter

Hourly Weather History & Observations

Time (PDT) Temp. Dew Point Humidity Pressure Visibility Wind Dir Wind Speed Gust Speed Precip Events Conditions
12:58 AM 78.6 °F 27.7 °F 15% 29.78 in 10.0 mi NNE 5.8 mph - N/A   Clear
1:58 AM 78.1 °F 28.8 °F 16% 29.78 in 10.0 mi ENE 5.8 mph - N/A   Clear
2:58 AM 77.4 °F 27.3 °F 16% 29.78 in 10.0 mi NNE 5.8 mph - N/A   Clear
3:58 AM 76.6 °F 29.5 °F 18% 29.78 in 10.0 mi ENE 2.3 mph - N/A   Clear
4:58 AM 75.9 °F 30.4 °F 19% 29.80 in 10.0 mi NNE 1.2 mph - N/A   Clear
5:58 AM 75.6 °F 31.1 °F 20% 29.81 in 10.0 mi NNW 3.5 mph - N/A   Clear
6:58 AM 73.4 °F 32.9 °F 23% 29.84 in 10.0 mi East 2.3 mph - N/A   Clear
7:58 AM 82.0 °F 33.4 °F 17% 29.86 in 10.0 mi Calm Calm - N/A   Clear
8:58 AM 86.7 °F 32.5 °F 14% 29.86 in 10.0 mi Calm Calm - N/A   Clear
9:58 AM 90.7 °F 34.0 °F 13% 29.86 in 10.0 mi North 1.2 mph - N/A   Clear
10:58 AM 94.3 °F 34.5 °F 12% 29.86 in 10.0 mi Variable 2.3 mph - N/A   Clear
11:58 AM 96.6 °F 36.7 °F 12% 29.84 in 10.0 mi East 1.2 mph - N/A   Clear
12:58 PM 98.8 °F 36.3 °F 11% 29.83 in 10.0 mi South 9.2 mph - N/A   Clear
1:58 PM 101.1 °F 33.6 °F 10% 29.81 in 10.0 mi SSE 11.5 mph - N/A   Clear
2:58 PM 102.0 °F 33.8 °F 9% 29.78 in 10.0 mi ESE 4.6 mph - N/A   Clear
3:38 PM 102.2 °F 33.8 °F 9% 29.84 in 10.0 mi SE 12.7 mph - N/A   Clear
3:58 PM 101.8 °F 30.7 °F 8% 29.75 in 10.0 mi SW 11.5 mph 20.7 mph N/A   Clear
4:58 PM 103.1 °F 31.8 °F 8% 29.74 in 10.0 mi South 13.8 mph 19.6 mph N/A   Clear
5:58 PM 102.4 °F 31.3 °F 8% 29.73 in 10.0 mi SW 12.7 mph - N/A   Clear
6:58 PM 99.9 °F 34.7 °F 10% 29.74 in 10.0 mi SSW 13.8 mph - N/A   Clear
7:58 PM 95.7 °F 34.0 °F 11% 29.75 in 10.0 mi SSW 8.1 mph - N/A   Clear
8:58 PM 94.8 °F 29.8 °F 10% 29.77 in 10.0 mi SSW 6.9 mph - N/A   Clear
9:58 PM 91.0 °F 32.4 °F 12% 29.79 in 10.0 mi South 5.8 mph - N/A   Clear
10:58 PM 90.0 °F 29.3 °F 11% 29.80 in 10.0 mi SW 8.1 mph - N/A   Clear
11:58 PM 88.0 °F 31.1 °F 13% 29.80 in 10.0 mi WNW 3.5 mph - N/A   Clear